STARLINK-11508, 62515

Orbit data source: Space-Track

STARLINK-11508, 62515 is a payload satellite owned by SpaceX/Seattle (US) in LEO that was launched on Wed, 08 Jan 2025 UTC via an FALCON 9 launch vehicle from the Air Force Eastern Test Range (AFETR). Payload-class satellites include a variety of spacecraft equipped with specific instruments for various scientific and technological missions. These include communications satellites like Starlink; space stations such as the ISS; scientific satellites like the Hubble; Earth observation satellites from companies like Planet Labs, Umbra, and HawkEye 360; GPS; miniature CubeSats for education and research; and military/defense satellites.

Loading next visibility...
Identifier
62515, 2025-004E
Orbit
LEO
Country
Flag of USUS
Related business
Manufacturer
SpaceX/Seattle
Mission
Operational Commercial Communications
Bus & Motor
STARLINK V2MD, Unknown motor
Mass
960 kg wet, ~910 kg dry
Launch date (UTC)
2025-01-08 (10 months ago)
Launch vehicle
FALCON 9
Launch site
Air Force Eastern Test Range (AFETR)
Object type
Payload
Rocket body
Debris
Shape & HBR
Box + 2 Pan, 18.1 m
Radar Cross Section
36.964 m², Large (>1 m²)

Expand to show TLE details & history
Last TLE update: 13 hours ago

TLE from 13 hours ago
0 STARLINK-11508
1 62515U 25004E   25308.64156491  .00213636  00000-0  16242-2 0  9992
2 62515  42.9994 104.3056 0004060 296.0022  64.0427 15.70861227 47540
Epoch: 2025-11-04T15:23Z
TLE epoch observation values (Epoch: 2025-11-04T15:23:51.208Z)
Latitude
-0.00002°
Longitude
-170.78346°
Altitude
355.01 km
Speed
7.699 km/s
True Right ascension
06h 57m 13s
True Declination
0° 00' 00"
Sunlit
Object was in full shadow at epoch
Visualization orbit readout
Latitude
Unknown
Longitude
Unknown
Altitude
Unknown
Speed
Unknown
Apparent Right ascension
Unknown
Apparent Declination
Unknown
Sunlit
N/A
Visualization observer readout
Local Sidereal Time
00:19:27
Azimuth
Unknown
Elevation
Unknown
Doppler factor
Unknown
Orbital elements
Apogee altitude
361.151 km
Perigee altitude
355.681 km
Semi-major axis
6,736.553 km
Eccentricity
0.00041
Inclination
42.9994°
RAAN
104.3056°
Arg. of periapsis
296.0022°
True anomaly
64.08454°
Mean anomaly
64.0427°
Eccentric anomaly
64.06362°
Mean motion
3.92542 °/min
Orbital period
91.71 mins
BSTAR
0.0016242
Loading maneuver chart data...
Computing Atmospheric mass density...
Loading historical data...
Loading historical data...
Loading historical data...
Loading historical data...
Loading historical data...
Loading historical data...
Loading historical data...

Documentation

Showing up to 5 results
|